TimeEST,TemperatureF,Dew PointF,Humidity,Sea Level PressureIn,VisibilityMPH,Wind Direction,Wind SpeedMPH,Gust SpeedMPH,PrecipitationIn,Events,Conditions,WindDirDegrees,DateUTC
12:15 AM,37.4,35.6,93,30.29,10.0,Calm,Calm,-,N/A,,Clear,0,2011-11-25 05:15:00
12:55 AM,35.6,33.8,93,30.29,10.0,Calm,Calm,-,N/A,,Clear,0,2011-11-25 05:55:00
1:15 AM,33.8,33.8,100,30.28,10.0,Calm,Calm,-,N/A,,Clear,0,2011-11-25 06:15:00
1:55 AM,37.4,37.4,100,30.28,10.0,WSW,4.6,-,N/A,,Clear,240,2011-11-25 06:55:00
2:15 AM,33.8,32.0,93,30.28,10.0,Calm,Calm,-,N/A,,Clear,0,2011-11-25 07:15:00
2:35 AM,33.8,32.0,93,30.28,10.0,Calm,Calm,-,N/A,,Clear,0,2011-11-25 07:35:00
3:15 AM,37.4,35.6,93,30.28,10.0,Calm,Calm,-,N/A,,Clear,0,2011-11-25 08:15:00
3:35 AM,35.6,33.8,93,30.27,10.0,Calm,Calm,-,N/A,,Clear,0,2011-11-25 08:35:00
3:55 AM,35.6,33.8,93,30.27,10.0,Calm,Calm,-,N/A,,Clear,0,2011-11-25 08:55:00
4:15 AM,37.4,35.6,93,30.27,10.0,Calm,Calm,-,N/A,,Clear,0,2011-11-25 09:15:00
4:35 AM,33.8,33.8,100,30.27,10.0,Calm,Calm,-,N/A,,Clear,0,2011-11-25 09:35:00
5:35 AM,33.8,32.0,93,30.27,10.0,Calm,Calm,-,N/A,,Clear,0,2011-11-25 10:35:00
6:15 AM,35.6,33.8,93,30.28,10.0,Calm,Calm,-,N/A,,Clear,0,2011-11-25 11:15:00
6:35 AM,33.8,33.8,100,30.28,10.0,Calm,Calm,-,N/A,,Clear,0,2011-11-25 11:35:00
6:55 AM,33.8,33.8,100,30.29,10.0,Calm,Calm,-,N/A,,Clear,0,2011-11-25 11:55:00
7:15 AM,37.4,35.6,93,30.29,10.0,WSW,3.5,-,N/A,,Clear,240,2011-11-25 12:15:00
7:35 AM,30.2,30.2,100,30.29,10.0,Calm,Calm,-,N/A,,Clear,0,2011-11-25 12:35:00
7:55 AM,33.8,33.8,100,30.29,10.0,Calm,Calm,-,N/A,,Clear,0,2011-11-25 12:55:00
8:15 AM,35.6,35.6,100,30.29,10.0,Calm,Calm,-,N/A,,Clear,0,2011-11-25 13:15:00
8:55 AM,44.6,37.4,76,30.29,10.0,Calm,Calm,-,N/A,,Clear,0,2011-11-25 13:55:00
9:15 AM,44.6,39.2,81,30.30,10.0,Calm,Calm,-,N/A,,Clear,0,2011-11-25 14:15:00
9:35 AM,46.4,37.4,71,30.29,10.0,South,4.6,-,N/A,,Clear,170,2011-11-25 14:35:00
9:55 AM,50.0,37.4,62,30.29,10.0,Calm,Calm,-,N/A,,Clear,0,2011-11-25 14:55:00
10:15 AM,53.6,37.4,54,30.29,10.0,South,3.5,-,N/A,,Clear,170,2011-11-25 15:15:00
10:35 AM,55.4,37.4,51,30.28,10.0,SSE,4.6,-,N/A,,Clear,160,2011-11-25 15:35:00
10:55 AM,59.0,37.4,45,30.28,10.0,Calm,Calm,-,N/A,,Clear,0,2011-11-25 15:55:00
11:15 AM,62.6,33.8,34,30.27,10.0,SW,5.8,-,N/A,,Clear,230,2011-11-25 16:15:00
11:55 AM,64.4,30.2,28,30.25,10.0,South,4.6,-,N/A,,Clear,170,2011-11-25 16:55:00
12:35 PM,69.8,23.0,17,30.23,10.0,SW,5.8,-,N/A,,Clear,220,2011-11-25 17:35:00
12:55 PM,69.8,15.8,13,30.23,10.0,WSW,5.8,-,N/A,,Clear,240,2011-11-25 17:55:00
1:15 PM,71.6,17.6,13,-9999,10.0,SW,4.6,-,N/A,,Clear,220,2011-11-25 18:15:00
1:35 PM,71.6,19.4,14,30.21,10.0,SSW,5.8,-,N/A,,Clear,210,2011-11-25 18:35:00
1:55 PM,71.6,15.8,12,30.20,10.0,SW,10.4,-,N/A,,Clear,230,2011-11-25 18:55:00
2:35 PM,71.6,15.8,12,30.20,10.0,West,4.6,-,N/A,,Clear,260,2011-11-25 19:35:00
3:15 PM,71.6,15.8,12,30.19,10.0,SW,5.8,-,N/A,,Clear,220,2011-11-25 20:15:00
3:35 PM,71.6,15.8,12,30.19,10.0,SW,5.8,-,N/A,,Clear,220,2011-11-25 20:35:00
4:15 PM,69.8,17.6,14,30.19,10.0,SW,3.5,-,N/A,,Clear,220,2011-11-25 21:15:00
4:35 PM,68.0,19.4,16,30.19,10.0,Calm,Calm,-,N/A,,Clear,0,2011-11-25 21:35:00
4:55 PM,64.4,23.0,21,30.19,10.0,Calm,Calm,-,N/A,,Clear,0,2011-11-25 21:55:00
5:15 PM,62.6,24.8,24,30.19,10.0,Calm,Calm,-,N/A,,Clear,0,2011-11-25 22:15:00
5:35 PM,62.6,24.8,24,30.20,10.0,Calm,Calm,-,N/A,,Clear,0,2011-11-25 22:35:00
5:55 PM,59.0,24.8,27,30.20,10.0,Calm,Calm,-,N/A,,Clear,0,2011-11-25 22:55:00
6:15 PM,60.8,23.0,23,30.20,10.0,Calm,Calm,-,N/A,,Clear,0,2011-11-25 23:15:00
6:35 PM,53.6,28.4,38,30.21,10.0,Calm,Calm,-,N/A,,Clear,0,2011-11-25 23:35:00
6:55 PM,53.6,26.6,35,30.21,10.0,Calm,Calm,-,N/A,,Clear,0,2011-11-25 23:55:00
7:15 PM,53.6,28.4,38,30.21,10.0,Calm,Calm,-,N/A,,Clear,0,2011-11-26 00:15:00
7:35 PM,55.4,26.6,33,30.21,10.0,Calm,Calm,-,N/A,,Clear,0,2011-11-26 00:35:00
7:55 PM,55.4,26.6,33,30.22,10.0,Calm,Calm,-,N/A,,Clear,0,2011-11-26 00:55:00
8:35 PM,42.8,32.0,66,30.21,10.0,Calm,Calm,-,N/A,,Clear,0,2011-11-26 01:35:00
9:15 PM,46.4,32.0,57,30.22,10.0,Calm,Calm,-,N/A,,Clear,0,2011-11-26 02:15:00
9:35 PM,46.4,30.2,53,30.22,10.0,Calm,Calm,-,N/A,,Clear,0,2011-11-26 02:35:00
9:55 PM,42.8,32.0,66,30.22,10.0,Calm,Calm,-,N/A,,Clear,0,2011-11-26 02:55:00
10:15 PM,48.2,28.4,46,30.22,10.0,Calm,Calm,-,N/A,,Clear,0,2011-11-26 03:15:00
10:35 PM,42.8,30.2,61,30.23,10.0,Calm,Calm,-,N/A,,Clear,0,2011-11-26 03:35:00
11:15 PM,42.8,30.2,61,30.23,10.0,Calm,Calm,-,N/A,,Clear,0,2011-11-26 04:15:00
11:35 PM,46.4,26.6,46,30.22,10.0,Calm,Calm,-,N/A,,Clear,0,2011-11-26 04:35:00
11:55 PM,44.6,28.4,53,30.23,10.0,Calm,Calm,-,N/A,,Clear,0,2011-11-26 04:55:00